This is the latest recevied weather packets stored in our database for station/object PP5CI-13. If no packets are shown the sender has not sent any weather packets the latest 10 day(s).
| Time | Temp. | Humidity | Pressure | Rain* | Wind** | Luminosity | Snow |
|---|---|---|---|---|---|---|---|
| 1777745721 | 23.33° C | 87% | 1013.2 hPa | 0 mm | - | - | - |
| 1777745121 | 23.89° C | 85% | 1013.2 hPa | 0 mm | - | - | - |
| 1777744524 | 23.89° C | 82% | 1013.2 hPa | 0 mm | - | - | - |
| 1777743921 | 23.89° C | 80% | 1013.2 hPa | 0 mm | - | - | - |
| 1777743321 | 24.44° C | 79% | 1013.2 hPa | 0 mm | - | - | - |
| 1777742723 | 24.44° C | 79% | 1013.2 hPa | 0 mm | - | - | - |
| 1777742121 | 24.44° C | 79% | 1013.2 hPa | 0 mm | - | - | - |
| 1777741521 | 25° C | 78% | 1013.2 hPa | 0 mm | - | - | - |
| 1777740923 | 25° C | 70% | 1013.2 hPa | 0 mm | - | - | - |
| 1777740321 | 25° C | 75% | 1013.2 hPa | 0 mm | - | - | - |
| 1777739721 | 25° C | 76% | 1013.2 hPa | 0 mm | - | - | - |
| 1777739124 | 25° C | 78% | 1014 hPa | 0 mm | - | - | - |
| 1777738521 | 25° C | 77% | 1014.2 hPa | 0 mm | - | - | - |
| 1777737921 | 25° C | 78% | 1014.2 hPa | 0 mm | - | - | - |
| 1777737324 | 24.44° C | 79% | 1014.2 hPa | 0 mm | - | - | - |
| 1777736721 | 24.44° C | 83% | 1014.2 hPa | 0 mm | - | - | - |
| 1777736121 | 24.44° C | 82% | 1015.2 hPa | 0 mm | - | - | - |
| 1777735524 | 24.44° C | 83% | 1015.7 hPa | 0 mm | - | - | - |
| 1777734921 | 24.44° C | 83% | 1016.2 hPa | 0 mm | - | - | - |
| 1777734321 | 24.44° C | 80% | 1016.2 hPa | 0 mm | - | - | - |
| 1777733723 | 24.44° C | 81% | 1016.2 hPa | 0 mm | - | - | - |
| 1777733121 | 24.44° C | 79% | 1016.2 hPa | 0 mm | - | - | - |
| 1777732521 | 23.89° C | 83% | 1016.5 hPa | 0 mm | - | - | - |
| 1777731924 | 23.33° C | 91% | 1017.2 hPa | 0 mm | - | - | - |
| 1777731321 | 23.33° C | 90% | 1017.2 hPa | 0 mm | - | - | - |
* Rain latest hour (hover to see other rain measurements)
** Current wind speed in m/s (hover to see current wind gust speed)